Tracking 29892 objects as of 21-Nov-2024
HD Live streaming from Space Station
objects crossing your sky now

STARLINK-30786

Track STARLINK-30786 now!
10-day predictions
STARLINK-30786 is classified as:


NORAD ID: 58216
Int'l Code: 2023-170L
Perigee: 195.5 km
Apogee: 210.1 km
Inclination: 43.0 °
Period: 88.4 minutes
Semi major axis: 6573 km
RCS: Unknown
Launch date: November 3, 2023
Source: United States (US)
Launch site: AIR FORCE EASTERN TEST RANGE (AFETR)
Your satellite tracking list
Your tracking list is empty




NASA's NSSDC Master Catalog

Two Line Element Set (TLE):
1 58216U 23170L   24324.96074206  .26386028  91806-5  60335-2 0  9997
2 58216  42.9892 138.8605 0011121 308.1897 180.6757 16.28833467 60245
Source of the keplerian elements: AFSPC